Time,TemperatureF,DewpointF,PressureIn,WindDirection,WindDirectionDegrees,WindSpeedMPH,WindSpeedGustMPH,Humidity,HourlyPrecipIn,Conditions,Clouds,dailyrainin,SolarRadiationWatts/m^2,SoftwareType,DateUTC
2015-01-25 00:03:00,34.1,31.0,29.81,SSW,193,0.0,5.0,89,0.00,,,0.00,0,weatherlink.com 1.10,2015-01-25 05:03:00,
2015-01-25 00:18:00,34.1,31.0,29.81,SSW,205,1.0,5.0,89,0.00,,,0.00,0,weatherlink.com 1.10,2015-01-25 05:18:00,
2015-01-25 00:33:00,34.0,31.0,29.81,SW,228,1.0,6.0,89,0.00,,,0.00,0,weatherlink.com 1.10,2015-01-25 05:33:00,
2015-01-25 00:48:00,33.9,31.0,29.81,SW,229,3.0,5.0,89,0.00,,,0.00,0,weatherlink.com 1.10,2015-01-25 05:48:00,
2015-01-25 01:03:00,33.5,31.0,29.80,SSW,206,2.0,4.0,89,0.00,,,0.00,0,weatherlink.com 1.10,2015-01-25 06:03:00,
2015-01-25 01:18:00,33.4,31.0,29.80,SSW,212,3.0,4.0,90,0.00,,,0.00,0,weatherlink.com 1.10,2015-01-25 06:18:00,
2015-01-25 01:33:00,33.2,31.0,29.81,SSW,209,1.0,4.0,90,0.00,,,0.00,0,weatherlink.com 1.10,2015-01-25 06:33:00,
2015-01-25 01:48:00,33.3,31.0,29.81,SSW,213,1.0,4.0,90,0.00,,,0.00,0,weatherlink.com 1.10,2015-01-25 06:48:00,
2015-01-25 02:03:00,32.9,30.0,29.81,SSW,196,0.0,2.0,90,0.00,,,0.00,0,weatherlink.com 1.10,2015-01-25 07:03:00,
2015-01-25 02:18:00,32.6,30.0,29.81,SSW,196,1.0,1.0,91,0.00,,,0.00,0,weatherlink.com 1.10,2015-01-25 07:18:00,
2015-01-25 02:33:00,32.8,31.0,29.81,SSW,196,1.0,2.0,91,0.00,,,0.00,0,weatherlink.com 1.10,2015-01-25 07:33:00,
2015-01-25 02:48:00,32.8,31.0,29.80,SSW,196,0.0,2.0,91,0.00,,,0.00,0,weatherlink.com 1.10,2015-01-25 07:48:00,
2015-01-25 03:03:00,32.8,31.0,29.80,SSW,194,0.0,3.0,91,0.00,,,0.00,0,weatherlink.com 1.10,2015-01-25 08:03:00,
2015-01-25 03:19:00,32.8,31.0,29.80,SSW,194,2.0,2.0,91,0.00,,,0.00,0,weatherlink.com 1.10,2015-01-25 08:19:00,
2015-01-25 03:33:00,32.7,30.0,29.79,South,173,0.0,3.0,91,0.00,,,0.00,0,weatherlink.com 1.10,2015-01-25 08:33:00,
2015-01-25 03:48:00,32.8,31.0,29.79,South,173,0.0,4.0,91,0.00,,,0.00,0,weatherlink.com 1.10,2015-01-25 08:48:00,
2015-01-25 04:03:00,32.9,31.0,29.79,South,187,0.0,4.0,91,0.00,,,0.00,0,weatherlink.com 1.10,2015-01-25 09:03:00,
2015-01-25 04:18:00,33.1,31.0,29.78,South,180,0.0,3.0,91,0.00,,,0.00,0,weatherlink.com 1.10,2015-01-25 09:18:00,
2015-01-25 04:33:00,33.1,31.0,29.78,South,180,1.0,2.0,91,0.00,,,0.00,0,weatherlink.com 1.10,2015-01-25 09:33:00,
2015-01-25 04:48:00,33.1,31.0,29.78,South,180,0.0,1.0,91,0.00,,,0.00,0,weatherlink.com 1.10,2015-01-25 09:48:00,
2015-01-25 05:03:00,33.2,31.0,29.77,South,180,0.0,2.0,91,0.00,,,0.00,0,weatherlink.com 1.10,2015-01-25 10:03:00,
2015-01-25 05:18:00,33.3,31.0,29.77,SSW,192,0.0,4.0,91,0.00,,,0.00,0,weatherlink.com 1.10,2015-01-25 10:18:00,
2015-01-25 05:33:00,33.3,31.0,29.77,SSW,210,0.0,4.0,91,0.00,,,0.00,0,weatherlink.com 1.10,2015-01-25 10:33:00,
2015-01-25 05:49:00,33.4,31.0,29.77,SSW,192,0.0,3.0,91,0.00,,,0.00,0,weatherlink.com 1.10,2015-01-25 10:49:00,
2015-01-25 06:03:00,33.4,31.0,29.77,SSW,192,0.0,2.0,91,0.00,,,0.00,0,weatherlink.com 1.10,2015-01-25 11:03:00,
2015-01-25 06:19:00,33.5,31.0,29.76,SSW,192,0.0,2.0,90,0.00,,,0.00,0,weatherlink.com 1.10,2015-01-25 11:19:00,
2015-01-25 06:34:00,33.5,31.0,29.76,SSE,156,0.0,4.0,90,0.00,,,0.00,0,weatherlink.com 1.10,2015-01-25 11:34:00,
2015-01-25 06:49:00,33.7,31.0,29.76,South,184,0.0,2.0,90,0.00,,,0.00,0,weatherlink.com 1.10,2015-01-25 11:49:00,
2015-01-25 07:04:00,33.9,31.0,29.76,South,184,0.0,1.0,90,0.00,,,0.00,0,weatherlink.com 1.10,2015-01-25 12:04:00,
2015-01-25 07:19:00,34.0,31.0,29.76,South,171,0.0,3.0,90,0.00,,,0.00,0,weatherlink.com 1.10,2015-01-25 12:19:00,
2015-01-25 07:34:00,34.1,32.0,29.76,South,171,0.0,2.0,90,0.00,,,0.00,0,weatherlink.com 1.10,2015-01-25 12:34:00,
2015-01-25 07:49:00,34.1,32.0,29.76,SSE,166,0.0,3.0,90,0.00,,,0.00,0,weatherlink.com 1.10,2015-01-25 12:49:00,
2015-01-25 08:04:00,34.3,32.0,29.75,SSE,166,0.0,1.0,90,0.00,,,0.00,7,weatherlink.com 1.10,2015-01-25 13:04:00,
2015-01-25 08:19:00,34.4,32.0,29.76,SSE,166,0.0,2.0,90,0.00,,,0.00,12,weatherlink.com 1.10,2015-01-25 13:19:00,
2015-01-25 08:34:00,34.8,32.0,29.75,SSE,165,0.0,2.0,90,0.00,,,0.00,26,weatherlink.com 1.10,2015-01-25 13:34:00,
2015-01-25 08:49:00,35.6,33.0,29.75,South,170,2.0,3.0,89,0.00,,,0.00,42,weatherlink.com 1.10,2015-01-25 13:49:00,
2015-01-25 09:04:00,36.2,33.0,29.76,South,171,1.0,5.0,88,0.00,,,0.00,44,weatherlink.com 1.10,2015-01-25 14:04:00,
2015-01-25 09:19:00,36.4,33.0,29.76,SSE,163,1.0,5.0,88,0.00,,,0.00,49,weatherlink.com 1.10,2015-01-25 14:19:00,
2015-01-25 09:34:00,36.7,33.0,29.76,SSE,156,5.0,6.0,87,0.00,,,0.00,72,weatherlink.com 1.10,2015-01-25 14:34:00,
2015-01-25 09:49:00,37.1,34.0,29.77,SE,144,3.0,6.0,87,0.00,,,0.00,63,weatherlink.com 1.10,2015-01-25 14:49:00,
2015-01-25 10:04:00,37.2,33.0,29.77,SSE,167,1.0,4.0,86,0.00,,,0.00,54,weatherlink.com 1.10,2015-01-25 15:04:00,
2015-01-25 10:19:00,37.5,34.0,29.76,SE,144,0.0,4.0,86,0.00,,,0.00,72,weatherlink.com 1.10,2015-01-25 15:19:00,
2015-01-25 10:34:00,37.8,34.0,29.77,SSE,156,1.0,4.0,86,0.00,,,0.00,76,weatherlink.com 1.10,2015-01-25 15:34:00,
2015-01-25 10:49:00,38.0,35.0,29.77,SSE,158,0.0,3.0,87,0.00,,,0.00,95,weatherlink.com 1.10,2015-01-25 15:49:00,
2015-01-25 11:04:00,38.3,35.0,29.78,SSE,157,1.0,3.0,87,0.00,,,0.00,118,weatherlink.com 1.10,2015-01-25 16:04:00,
2015-01-25 11:19:00,38.7,35.0,29.77,SE,126,2.0,3.0,86,0.00,,,0.00,142,weatherlink.com 1.10,2015-01-25 16:19:00,
2015-01-25 11:34:00,39.3,36.0,29.77,SSE,151,3.0,6.0,86,0.00,,,0.00,167,weatherlink.com 1.10,2015-01-25 16:34:00,
2015-01-25 11:49:00,39.4,35.0,29.76,SSE,150,4.0,6.0,84,0.00,,,0.00,114,weatherlink.com 1.10,2015-01-25 16:49:00,
2015-01-25 12:04:00,39.6,35.0,29.75,SE,138,2.0,5.0,84,0.00,,,0.00,107,weatherlink.com 1.10,2015-01-25 17:04:00,
2015-01-25 12:19:00,39.7,35.0,29.74,SE,138,2.0,7.0,83,0.00,,,0.00,156,weatherlink.com 1.10,2015-01-25 17:19:00,
2015-01-25 12:34:00,39.7,35.0,29.73,SE,140,3.0,7.0,82,0.00,,,0.00,93,weatherlink.com 1.10,2015-01-25 17:34:00,
2015-01-25 12:49:00,40.1,35.0,29.73,SSE,153,5.0,5.0,82,0.00,,,0.00,116,weatherlink.com 1.10,2015-01-25 17:49:00,
2015-01-25 13:05:00,40.2,35.0,29.72,ESE,113,2.0,5.0,81,0.00,,,0.00,104,weatherlink.com 1.10,2015-01-25 18:05:00,
2015-01-25 13:19:00,40.4,35.0,29.72,SE,135,4.0,5.0,82,0.00,,,0.00,90,weatherlink.com 1.10,2015-01-25 18:19:00,
2015-01-25 13:34:00,40.5,35.0,29.71,SE,136,3.0,5.0,82,0.00,,,0.00,97,weatherlink.com 1.10,2015-01-25 18:34:00,
2015-01-25 13:50:00,40.5,35.0,29.71,ESE,109,4.0,5.0,82,0.00,,,0.00,62,weatherlink.com 1.10,2015-01-25 18:50:00,
2015-01-25 14:04:00,40.3,35.0,29.70,SE,133,4.0,7.0,82,0.00,,,0.00,58,weatherlink.com 1.10,2015-01-25 19:04:00,
2015-01-25 14:19:00,40.3,35.0,29.71,SE,136,3.0,6.0,82,0.00,,,0.00,44,weatherlink.com 1.10,2015-01-25 19:19:00,
2015-01-25 14:34:00,40.2,35.0,29.71,ESE,123,3.0,6.0,83,0.00,,,0.00,47,weatherlink.com 1.10,2015-01-25 19:34:00,
2015-01-25 14:49:00,39.9,36.0,29.70,ESE,109,3.0,8.0,85,0.00,,,0.00,49,weatherlink.com 1.10,2015-01-25 19:49:00,
2015-01-25 15:05:00,39.6,36.0,29.70,ESE,116,3.0,6.0,86,0.01,,,0.01,53,weatherlink.com 1.10,2015-01-25 20:05:00,
2015-01-25 15:20:00,39.5,36.0,29.70,ESE,104,4.0,7.0,87,0.01,,,0.01,47,weatherlink.com 1.10,2015-01-25 20:20:00,
2015-01-25 15:35:00,39.5,36.0,29.69,East,99,3.0,5.0,88,0.02,,,0.02,46,weatherlink.com 1.10,2015-01-25 20:35:00,
2015-01-25 15:50:00,39.4,37.0,29.69,ESE,107,1.0,6.0,89,0.01,,,0.02,44,weatherlink.com 1.10,2015-01-25 20:50:00,
2015-01-25 16:05:00,39.3,36.0,29.69,ESE,103,3.0,4.0,89,0.01,,,0.02,32,weatherlink.com 1.10,2015-01-25 21:05:00,
2015-01-25 16:20:00,39.3,37.0,29.69,ESE,106,2.0,6.0,90,0.01,,,0.02,32,weatherlink.com 1.10,2015-01-25 21:20:00,
2015-01-25 16:35:00,39.2,37.0,29.69,SE,136,1.0,7.0,90,0.01,,,0.03,19,weatherlink.com 1.10,2015-01-25 21:35:00,
2015-01-25 16:50:00,39.1,37.0,29.69,ESE,115,2.0,6.0,90,0.01,,,0.03,16,weatherlink.com 1.10,2015-01-25 21:50:00,